User: anonymous   Login
Location: Unspecified
(0.0000°N, 0.0000°E)
Time: 19:55:53
(UTC+00:00)
Language:

Explorer 22 - Orbit

View from above orbital plane
View from above orbital plane
View from above satellite
View from above satellite

Ground track
Ground track

The orbit data is extracted from the following two-line orbital elements,

1   899U 64064A   19341.15517272  .00000004  00000-0 -18488-5 0  9993
2   899  79.6908 213.2509 0120110 209.4127 150.0230 13.82113866775963
Epoch (UTC): 07 December 2019 03:43:26
Eccentricity: 0.0120110
inclination: 79.6908°
perigee height: 868 km
apogee height: 1044 km
right ascension of ascending node: 213.2509°
argument of perigee: 209.4127°
revolutions per day: 13.82113866
mean anomaly at epoch: 150.0230°
orbit number at epoch: 77596

The dashed part of the orbit path shows where the satellite is in the earth's shadow,  

DLR